TimeCST,TemperatureF,Dew PointF,Humidity,Sea Level PressureIn,VisibilityMPH,Wind Direction,Wind SpeedMPH,Gust SpeedMPH,PrecipitationIn,Events,Conditions,WindDirDegrees,DateUTC
12:56 AM,10.9,8.1,88,29.94,-9999.0,South,16.1,-,N/A,,Unknown,170,2012-12-12 06:56:00
1:56 AM,10.0,8.1,92,29.91,-9999.0,South,12.7,-,N/A,,Unknown,170,2012-12-12 07:56:00
2:56 AM,10.9,9.0,92,29.89,-9999.0,South,18.4,-,N/A,,Unknown,170,2012-12-12 08:56:00
3:56 AM,10.9,9.0,92,29.86,-9999.0,South,16.1,-,N/A,,Unknown,180,2012-12-12 09:56:00
4:56 AM,10.9,9.0,92,29.84,-9999.0,South,17.3,-,N/A,,Unknown,180,2012-12-12 10:56:00
5:56 AM,10.9,9.0,92,29.84,-9999.0,South,15.0,-,N/A,,Unknown,170,2012-12-12 11:56:00
6:56 AM,10.0,9.0,95,29.84,-9999.0,South,12.7,-,N/A,,Unknown,180,2012-12-12 12:56:00
7:56 AM,10.0,8.1,92,29.83,-9999.0,South,10.4,-,N/A,,Unknown,170,2012-12-12 13:56:00
8:56 AM,10.0,8.1,92,29.84,-9999.0,South,9.2,-,N/A,,Unknown,180,2012-12-12 14:56:00
9:56 AM,12.9,10.0,88,29.83,-9999.0,SSE,6.9,-,N/A,,Unknown,150,2012-12-12 15:56:00
10:56 AM,14.0,10.9,88,29.85,-9999.0,ESE,5.8,-,N/A,,Unknown,120,2012-12-12 16:56:00
11:56 AM,19.0,14.0,81,29.82,-9999.0,SE,8.1,-,N/A,,Unknown,130,2012-12-12 17:56:00
12:56 PM,21.9,16.0,78,29.81,-9999.0,SE,3.5,-,N/A,,Unknown,130,2012-12-12 18:56:00
1:56 PM,24.1,18.0,77,29.83,-9999.0,ENE,3.5,-,N/A,,Unknown,70,2012-12-12 19:56:00
2:56 PM,25.0,19.0,78,29.84,-9999.0,NE,3.5,-,N/A,,Unknown,40,2012-12-12 20:56:00
3:56 PM,25.0,19.0,78,29.87,-9999.0,Calm,Calm,-,N/A,,Unknown,0,2012-12-12 21:56:00
4:56 PM,25.0,19.9,81,29.89,-9999.0,Calm,Calm,-,N/A,,Unknown,0,2012-12-12 22:56:00
5:56 PM,25.0,21.0,85,29.91,-9999.0,Calm,Calm,-,N/A,,Unknown,0,2012-12-12 23:56:00
6:56 PM,24.1,21.0,88,29.94,-9999.0,North,5.8,-,N/A,,Unknown,350,2012-12-13 00:56:00
7:56 PM,23.0,19.9,88,29.94,-9999.0,North,9.2,-,N/A,,Unknown,360,2012-12-13 01:56:00
8:56 PM,19.9,16.0,85,29.97,-9999.0,North,9.2,-,N/A,,Unknown,360,2012-12-13 02:56:00
9:56 PM,19.9,16.0,85,29.97,-9999.0,North,6.9,-,N/A,,Unknown,10,2012-12-13 03:56:00
10:56 PM,19.0,16.0,88,29.99,-9999.0,North,9.2,-,N/A,,Unknown,360,2012-12-13 04:56:00
11:56 PM,18.0,15.1,88,30.00,-9999.0,NNE,9.2,-,N/A,,Unknown,20,2012-12-13 05:56:00